Date String (YYYY-MM-DD hh:mm:ss) UTC,Instrument flags,Ambient pressure (hPa),Sample flow (lpm),Bypass flow (lpm),Sample temperature (°C),Ambient temperature (°C),ASC tube jacket temperature (°C),LED temperature (°C),Box temperature (°C),Sample RH (%),Span deviation,Mass concentration (μg/m³),Mass concentration (μg/m³),Mass concentration (μg/m³)
DateTimeUTC,F1_M11,P_M11,Q1_M11,Q2_M11,T1_M11,T2_M11,T3_M11,T4_M11,T5_M11,U1_M11,ZSPAN_M11,X2_M11,X0_M11,X1_M11
2022-04-25 05:00:00,,0832.7,4.99,0.00,23.5,22.6,00.0,32.5,25.3,14.6,0000.0,0002.44,0007.66,0001.76
2022-04-25 05:01:00,,0832.7,5.00,0.00,23.5,22.6,00.0,32.5,25.2,14.4,0000.0,0002.49,0007.05,0001.79
2022-04-25 05:02:00,,0832.7,5.00,0.00,23.5,22.6,00.0,32.5,25.2,13.9,0000.0,0002.52,0006.39,0001.81
2022-04-25 05:03:00,,0832.8,5.01,0.00,23.4,22.5,00.0,32.5,25.2,13.1,0000.0,0002.57,0006.35,0001.84
2022-04-25 05:04:00,,0832.7,5.01,0.00,23.4,22.5,00.0,32.5,25.1,13.6,0000.0,0002.62,0005.82,0001.88
2022-04-25 05:05:00,,0832.7,5.01,0.00,23.4,22.5,00.0,32.4,25.1,13.7,0000.0,0002.61,0005.08,0001.90
2022-04-25 05:06:00,,0832.7,4.98,0.00,23.4,22.5,00.0,32.4,25.1,13.3,0000.0,0002.62,0005.22,0001.94
2022-04-25 05:07:00,,0832.8,5.01,0.00,23.4,22.6,00.0,32.4,25.2,12.9,0000.0,0002.64,0006.52,0001.98
2022-04-25 05:08:00,,0832.8,5.01,0.00,23.4,22.5,00.0,32.4,25.1,12.4,0000.0,0002.77,0007.47,0002.06
2022-04-25 05:09:00,,0832.8,5.01,0.00,23.3,22.5,00.0,32.4,25.1,12.2,0000.0,0002.88,0007.72,0002.13
2022-04-25 05:10:00,,0832.7,5.00,0.00,23.3,22.6,00.0,32.4,25.1,11.3,0000.0,0002.93,0007.73,0002.20
2022-04-25 05:11:00,,0832.8,4.99,0.00,23.3,22.6,00.0,32.4,25.1,11.4,0000.0,0003.03,0007.79,0002.28
2022-04-25 05:12:00,,0832.7,5.01,0.00,23.3,22.6,00.0,32.4,25.1,11.4,0000.0,0003.09,0007.81,0002.34
2022-04-25 05:13:00,,0832.7,4.98,0.00,23.3,22.5,00.0,32.3,25.1,11.1,0000.0,0003.14,0008.19,0002.40
2022-04-25 05:14:00,,0832.8,5.00,0.00,23.3,22.5,00.0,32.3,25.0,11.1,0000.0,0003.18,0008.72,0002.46
2022-04-25 05:15:00,,0832.8,5.01,0.00,23.2,22.4,00.0,32.3,25.0,10.8,0000.0,0003.22,0009.00,0002.51
2022-04-25 05:16:00,,0832.8,5.01,0.00,23.2,22.4,00.0,32.3,25.0,10.4,0000.0,0003.24,0009.00,0002.58
2022-04-25 05:17:00,,0832.9,4.99,0.00,23.2,22.3,00.0,32.3,24.9,10.3,0000.0,0003.28,0010.06,0002.64
2022-04-25 05:18:00,,0832.8,4.99,0.00,23.2,22.3,00.0,32.2,24.9,10.3,0000.0,0003.32,0009.17,0002.71
2022-04-25 05:19:00,,0832.8,5.01,0.00,23.1,22.3,00.0,32.2,24.9,10.4,0000.0,0003.32,0008.66,0002.73
2022-04-25 05:20:00,,0832.9,5.00,0.00,23.1,22.3,00.0,32.2,24.9,10.6,0000.0,0003.34,0008.89,0002.75
2022-04-25 05:21:00,,0832.9,5.00,0.00,23.1,22.2,00.0,32.2,24.9,10.4,0000.0,0003.38,0009.59,0002.77
2022-04-25 05:22:00,,0832.9,5.00,0.00,23.1,22.2,00.0,32.2,24.9,10.3,0000.0,0003.38,0009.79,0002.78
2022-04-25 05:23:00,,0832.8,4.98,0.00,23.1,22.2,00.0,32.1,24.9,10.2,0000.0,0003.40,0009.95,0002.79
2022-04-25 05:24:00,,0832.9,5.00,0.00,23.1,22.2,00.0,32.1,24.8,10.1,0000.0,0003.44,0009.95,0002.80
2022-04-25 05:25:00,,0832.9,5.01,0.00,23.0,22.2,00.0,32.1,24.8,10.1,0000.0,0003.48,0009.66,0002.82
2022-04-25 05:26:00,,0832.8,5.01,0.00,23.0,22.2,00.0,32.1,24.8,10.0,0000.0,0003.50,0009.57,0002.83
2022-04-25 05:27:00,,0832.9,5.01,0.00,23.0,22.2,00.0,32.1,24.8,10.0,0000.0,0003.55,0009.75,0002.85
2022-04-25 05:28:00,,0832.8,4.98,0.00,23.0,22.2,00.0,32.1,24.8,10.2,0000.0,0003.55,0008.72,0002.85
2022-04-25 05:29:00,,0832.8,5.01,0.00,23.0,22.2,00.0,32.0,24.8,10.8,0000.0,0003.55,0008.47,0002.85
2022-04-25 05:30:00,,0832.8,5.01,0.00,23.0,22.3,00.0,32.0,24.8,10.9,0000.0,0003.57,0009.23,0002.84
2022-04-25 05:31:00,,0832.9,4.99,0.00,23.0,22.3,00.0,32.0,24.9,10.5,0000.0,0003.54,0008.97,0002.84
2022-04-25 05:32:00,,0832.8,5.01,0.00,23.0,22.3,00.0,32.0,24.9,10.4,0000.0,0003.50,0008.24,0002.83
2022-04-25 05:33:00,,0832.9,5.01,0.00,23.0,22.3,00.0,32.0,24.9,10.4,0000.0,0003.52,0008.15,0002.83
2022-04-25 05:34:00,,0833.0,4.99,0.00,23.0,22.4,00.0,32.0,24.9,10.4,0000.0,0003.51,0008.39,0002.84
2022-04-25 05:35:00,,0833.0,5.00,0.00,23.0,22.3,00.0,32.0,24.8,10.4,0000.0,0003.47,0008.32,0002.84
2022-04-25 05:36:00,,0833.0,5.01,0.00,23.0,22.3,00.0,32.0,24.8,10.4,0000.0,0003.47,0008.70,0002.85
2022-04-25 05:37:00,,0833.1,4.99,0.00,23.0,22.3,00.0,32.0,24.8,10.2,0000.0,0003.48,0008.72,0002.85
2022-04-25 05:38:00,,0833.1,5.00,0.00,23.0,22.3,00.0,32.0,24.8,10.0,0000.0,0003.49,0008.92,0002.86
2022-04-25 05:39:00,,0833.0,4.99,0.00,23.0,22.3,00.0,32.0,24.8,10.1,0000.0,0003.58,0009.25,0002.91
2022-04-25 05:40:00,,0833.0,5.01,0.00,23.0,22.3,00.0,32.0,24.8,10.1,0000.0,0003.63,0010.43,0002.94
2022-04-25 05:41:00,,0832.9,5.00,0.00,23.0,22.3,00.0,32.0,24.8,10.0,0000.0,0003.70,0009.83,0002.99
2022-04-25 05:42:00,,0832.9,4.99,0.00,23.0,22.3,00.0,32.0,24.8,10.0,0000.0,0003.75,0010.19,0003.02
2022-04-25 05:43:00,,0832.9,5.01,0.00,23.0,22.3,00.0,32.0,24.8,10.0,0000.0,0003.84,0010.78,0003.06
2022-04-25 05:44:00,,0832.8,5.01,0.00,23.0,22.3,00.0,32.0,24.8,09.9,0000.0,0003.92,0011.58,0003.11
2022-04-25 05:45:00,,0832.9,4.98,0.00,23.0,22.2,00.0,32.0,24.8,09.9,0000.0,0003.98,0011.92,0003.12
2022-04-25 05:46:00,,0832.9,5.00,0.00,23.0,22.2,00.0,32.0,24.7,09.8,0000.0,0004.03,0012.53,0003.14
2022-04-25 05:47:00,,0832.9,5.01,0.00,22.9,22.2,00.0,31.9,24.7,09.9,0000.0,0004.05,0013.04,0003.17
2022-04-25 05:48:00,,0832.9,5.01,0.00,22.9,22.1,00.0,31.9,24.7,09.9,0000.0,0004.10,0013.99,0003.18
2022-04-25 05:49:00,,0833.0,5.00,0.00,22.9,22.1,00.0,31.9,24.7,09.8,0000.0,0004.12,0013.98,0003.20
2022-04-25 05:50:00,,0832.9,4.99,0.00,22.9,22.1,00.0,31.9,24.7,09.8,0000.0,0004.10,0013.81,0003.20
2022-04-25 05:51:00,,0833.0,5.01,0.00,22.9,22.0,00.0,31.9,24.6,09.8,0000.0,0004.15,0013.25,0003.20
2022-04-25 05:52:00,,0832.9,5.00,0.00,22.8,22.0,00.0,31.9,24.6,09.9,0000.0,0004.15,0012.94,0003.21
2022-04-25 05:53:00,,0832.9,5.00,0.00,22.8,22.0,00.0,31.9,24.6,09.9,0000.0,0004.14,0012.87,0003.22
2022-04-25 05:54:00,,0832.9,5.00,0.00,22.8,22.0,00.0,31.9,24.6,09.9,0000.0,0004.10,0012.81,0003.23
2022-04-25 05:55:00,,0832.9,5.00,0.00,22.8,22.1,00.0,31.8,24.6,09.8,0000.0,0004.09,0012.35,0003.23
2022-04-25 05:56:00,,0832.9,5.00,0.00,22.8,22.1,00.0,31.8,24.6,10.0,0000.0,0004.06,0011.94,0003.23
2022-04-25 05:57:00,,0833.0,5.00,0.00,22.8,22.1,00.0,31.8,24.6,10.0,0000.0,0004.07,0012.15,0003.23
2022-04-25 05:58:00,,0833.0,5.01,0.00,22.8,22.1,00.0,31.8,24.6,09.8,0000.0,0004.09,0011.75,0003.21
2022-04-25 05:59:00,,0833.0,4.99,0.00,22.8,22.1,00.0,31.8,24.6,09.6,0000.0,0004.04,0010.36,0003.20
